Location: Alsip
(41.6689°N, 87.7387°W)
Time: 13:04:19
(UTC+00:00)

SeaSat 1 - Pass Details

Date: 14 July 2020
Orbit: 744 x 747 km, 108.0° (Epoch: 04 August)

Event Time Altitude Azimuth Distance (km) Brightness Sun altitude
Rises 08:54:00 0° 15° (NNE) 3,200 6.9 -14.6°
Reaches altitude 10° 08:56:34 10° 3° (N) 2,272 5.7 -14.3°
Maximum altitude 09:00:37 26° 308° (NW) 1,442 3.9 -13.8°
Enters shadow 09:03:53 14° 259° (W) 2,020 4.2 -13.4°
